Regional Weather Roundup
Issued by NWS Albany, NY

Home | Current Version | Previous Version | Graphics & Text | Print | Product List | Glossary On
Versions: 1 2 3 4 5 6 7 8 9 10 11 12 13 14 15 16 17 18 19 20 21 22 23 24 25 26 27 28 29 30 31 32 33 34 35 36 37 38 39 40 41 42 43 44 45 46 47 48 49 50
000
ASUS41 KALY 190010
RWRALY

NEW YORK STATE HOURLY WEATHER ROUNDUP
NATIONAL WEATHER SERVICE ALBANY NY
800 PM EDT WED APR 18 2018

NOTE: "FAIR" INDICATES FEW OR NO CLOUDS BELOW 12,000 FEET WITH NO
SIGNIFICANT WEATHER AND/OR NO OBSTRUCTIONS TO VISIBILITY.

NYZ032-033-038>043-046>054-057>066-NYZ062>081-082-084-190100-
EAST


CITY           SKY/WX    TMP DP  RH WIND       PRES   REMARKS
ALBANY         CLOUDY    42  29  59 W6        29.79S
GLENS FALLS    CLOUDY    41  27  57 W13G23    29.75R
POUGHKEEPSIE   FAIR      44  26  49 CALM      29.78R
MONTGOMERY     FAIR      44  28  53 N3        29.77S
WHITE PLAINS   FAIR      45  27  49 NW6       29.77R
ISLIP          FAIR      46  33  60 SW8       29.78S
NEW YORK CITY  FAIR      53  27  36 W10       29.77S
CENTRAL PARK   FAIR      51  29  42 CALM      29.80S
$$

NYZ005>009-017-018-044>046-055-056-190100-
CENTRAL


CITY           SKY/WX    TMP DP  RH WIND       PRES   REMARKS
FULTON           N/A    N/A N/A N/A MISG      29.79S
SYRACUSE       CLOUDY    38  29  70 W8        29.79S WCI  32
ROME           CLOUDY    37  30  75 W7        29.79S WCI  32
ELMIRA         FAIR      38  27  64 NW3       29.78F
BINGHAMTON     FAIR      35  25  66 NW5       29.74F WCI  31
MONTICELLO     FAIR      37  26  64 W3        29.77S
$$

NYZ026>034-041>043-087-190100-
NORTH


CITY           SKY/WX    TMP DP  RH WIND       PRES   REMARKS
WATERTOWN      CLOUDY    37  32  82 SW14G25   29.76R WCI  28
FORT DRUM      NOT AVBL
OGDENSBURG     MOCLDY    40  32  71 W7        29.71R
MASSENA        CLOUDY    41  35  79 SW9       29.70R
SARANAC LAKE   CLOUDY    33  31  92 SW12G22   29.65R WCI  24
PLATTSBURGH    CLOUDY    43  31  62 VRB5      29.68R
$$

NYZ001>004-010>016-019>021-085-190100-
WEST


CITY           SKY/WX    TMP DP  RH WIND       PRES   REMARKS
NIAGARA FALLS  CLOUDY    37  28  70 SW8       29.80F WCI  31
BUFFALO        CLOUDY    34  29  82 SW8       29.80F WCI  27
DUNKIRK        MOCLDY    34  25  69 NE3       29.78F
JAMESTOWN      FAIR      30  26  85 N3        29.76F
WELLSVILLE     CLOUDY    34  26  72 MISG      29.76S
ROCHESTER      CLOUDY    37  29  72 W13       29.81R WCI  29
PENN YAN       CLOUDY    37  25  61 W8        29.80R WCI  31
$$

             KEY
       WCI = WIND CHILL INDEX
       VSB = VISIBILITY
       HX  = HEAT INDEX
$$



USA.gov is the U.S. government's official web portal to all federal, state and local government web resources and services.